DJ3OW-13 Weather Reports


Display with metric or nautical units.
time (UTC)temp
F
wind
direction
speed
MPH
gust
MPH
rain 1hr
in
rain 24hr
in
rain mn
in
humidity
%
barometer
mb
20260507225055 46 248 0.0 2.0 0.00 0.07 0.00 99 1020.0
20260507224033 46 0.0 0.0 0.00 0.08 0.00 99 1020.0
20260507223031 46 0.0 0.0 0.00 0.08 0.00 99 1020.0
20260507222049 46 0.0 0.0 0.00 0.08 0.00 99 1020.1
20260507221027 46 0.0 0.0 0.00 0.09 0.00 99 1020.0
20260507220025 46 0.0 0.0 0.00 0.11 0.00 99 1020.0
20260507215023 46 0.0 0.0 0.00 0.11 0.11 99 1019.9
20260507214021 46 0.0 0.0 0.00 0.11 0.11 99 1019.9
20260507213039 46 0.0 0.0 0.00 0.11 0.11 99 1019.9
20260507212016 46 0.0 0.0 0.00 0.11 0.11 99 1019.9
20260507211015 46 0.0 0.0 0.00 0.11 0.11 98 1019.9
20260507210113 46 0.0 0.0 0.00 0.12 0.11 98 1019.7
20260507205111 46 0.0 0.0 0.00 0.12 0.11 98 1019.8
20260507204108 46 0.0 0.0 0.00 0.12 0.11 98 1019.8
20260507203106 46 0.0 0.0 0.00 0.12 0.11 98 1019.8
20260507202104 46 0.0 0.0 0.00 0.12 0.11 98 1019.7
20260507201102 46 0.0 0.0 0.00 0.13 0.11 98 1019.6
20260507200100 46 0.0 0.0 0.00 0.13 0.11 98 1019.5
20260507195059 46 0.0 0.0 0.00 0.13 0.11 98 1019.5
20260507194057 46 0.0 0.0 0.00 0.13 0.11 98 1019.5
20260507193055 46 0.0 2.0 0.00 0.13 0.11 98 1019.4
20260507192052 46 248 0.0 2.0 0.00 0.14 0.11 98 1019.3
20260507191050 46 242 1.0 2.0 0.00 0.14 0.11 98 1019.3
20260507190048 46 248 0.0 2.0 0.00 0.14 0.11 98 1019.3
20260507185106 46 248 1.0 2.0 0.00 0.14 0.11 98 1019.1
20260507184104 46 0.0 0.0 0.00 0.14 0.11 98 1019.2
20260507183102 46 0.0 0.0 0.00 0.14 0.11 98 1019.1
20260507182040 46 0.0 0.0 0.00 0.14 0.11 98 1019.0
20260507181038 46 0.0 0.0 0.00 0.14 0.11 98 1018.9
20260507180036 46 0.0 0.0 0.00 0.14 0.11 97 1018.9
20260507175034 46 0.0 0.0 0.00 0.14 0.11 97 1018.8
20260507174052 47 0.0 0.0 0.00 0.14 0.11 97 1018.8
20260507173030 47 0.0 0.0 0.00 0.14 0.11 97 1018.7
20260507172028 47 0.0 0.0 0.00 0.14 0.11 97 1018.6
20260507171026 47 0.0 0.0 0.00 0.14 0.11 97 1018.5
20260507170024 47 0.0 0.0 0.00 0.14 0.11 97 1018.5
20260507165022 47 0.0 0.0 0.00 0.14 0.11 97 1018.5
20260507164040 47 113 0.0 2.0 0.00 0.14 0.11 97 1018.5
20260507163018 47 203 0.0 2.0 0.00 0.14 0.11 97 1018.4
20260507162016 47 0.0 0.0 0.00 0.14 0.11 97 1018.3
20260507161114 47 0.0 0.0 0.01 0.14 0.11 97 1018.3
20260507160112 47 0.0 0.0 0.01 0.14 0.11 97 1018.3
20260507155110 47 225 0.0 2.0 0.01 0.14 0.11 96 1018.3
20260507154108 47 0.0 0.0 0.01 0.14 0.11 96 1018.2
20260507153106 47 0.0 2.0 0.01 0.14 0.11 96 1018.2
20260507152104 47 0.0 0.0 0.01 0.14 0.11 96 1018.1
20260507151102 47 0.0 0.0 0.00 0.13 0.09 96 1018.0
20260507150100 47 90 0.0 2.0 0.00 0.13 0.09 96 1017.9
20260507145058 47 0.0 0.0 0.00 0.13 0.09 96 1017.9
20260507144056 47 0.0 0.0 0.00 0.13 0.09 96 1017.9
20260507143054 47 0.0 2.0 0.00 0.13 0.09 96 1017.9
20260507142132 47 0.0 0.0 0.00 0.13 0.09 96 1017.8
20260507141050 47 0.0 0.0 0.00 0.13 0.09 96 1017.8
20260507140048 47 0.0 2.0 0.00 0.13 0.09 96 1017.8
20260507135046 47 0.0 0.0 0.00 0.13 0.09 96 1017.7
20260507134104 47 0.0 0.0 0.00 0.14 0.09 96 1017.6
20260507133102 47 0.0 0.0 0.00 0.14 0.09 97 1017.6
20260507132040 46 0.0 2.0 0.00 0.14 0.09 97 1017.5
20260507131038 46 90 0.0 2.0 0.00 0.14 0.09 97 1017.4
20260507130036 46 0.0 2.0 0.00 0.15 0.09 97 1017.4
20260507125034 46 270 0.0 2.0 0.00 0.17 0.09 97 1017.2
20260507124031 46 270 0.0 2.0 0.00 0.18 0.09 97 1017.1
20260507123030 46 0.0 2.0 0.00 0.19 0.09 97 1017.1
20260507122028 46 225 0.0 2.0 0.00 0.19 0.09 97 1017.0
20260507121045 47 0.0 2.0 0.00 0.19 0.09 97 1017.0
20260507120023 47 113 0.0 2.0 0.00 0.19 0.09 97 1016.8
20260507115022 46 0.0 2.0 0.00 0.19 0.09 97 1016.8
20260507114020 47 103 0.0 4.0 0.00 0.19 0.09 98 1016.7
20260507113017 46 73 0.0 2.0 0.00 0.19 0.09 98 1016.6
20260507112016 46 103 0.0 2.0 0.00 0.19 0.09 99 1016.6
20260507111113 46 101 0.0 2.0 0.00 0.19 0.09 99 1016.5
20260507110111 46 42 0.0 2.0 0.00 0.19 0.09 99 1016.5
20260507105110 46 136 1.0 4.0 0.01 0.19 0.09 99 1016.4
20260507104127 46 0.0 2.0 0.01 0.19 0.09 99 1016.3
20260507103105 46 0.0 2.0 0.01 0.20 0.09 99 1016.1
20260507102103 46 68 0.0 2.0 0.01 0.20 0.09 99 1016.2
20260507101102 46 45 0.0 4.0 0.01 0.20 0.09 99 1016.0
20260507100140 46 0.0 2.0 0.01 0.21 0.09 99 1015.9
20260507095058 47 0.0 0.0 0.00 0.20 0.08 99 1015.7
20260507094055 47 0.0 0.0 0.00 0.21 0.08 99 1015.7
20260507093053 47 0.0 2.0 0.00 0.21 0.08 99 1015.5
20260507092051 46 0.0 0.0 0.00 0.21 0.08 99 1015.4
20260507091049 46 0.0 0.0 0.00 0.21 0.08 99 1015.2
20260507090047 46 0.0 2.0 0.00 0.21 0.08 99 1015.1
20260507085045 46 68 0.0 9.0 0.00 0.21 0.08 99 1015.0
20260507084043 47 0.0 2.0 0.00 0.21 0.08 99 1014.8
20260507083041 46 282 0.0 2.0 0.00 0.21 0.08 99 1014.8
20260507082039 46 0.0 2.0 0.00 0.21 0.08 99 1014.7
20260507081037 46 23 0.0 2.0 0.00 0.21 0.08 99 1014.6
20260507080035 45 338 0.0 2.0 0.00 0.21 0.08 99 1014.5
20260507075033 46 0.0 2.0 0.00 0.21 0.08 99 1014.3
20260507074031 46 0.0 2.0 0.00 0.21 0.08 99 1014.2
20260507073029 45 0.0 0.0 0.00 0.21 0.08 99 1013.9
20260507072027 45 0.0 0.0 0.00 0.22 0.08 99 1013.9
20260507071045 46 45 0.0 2.0 0.00 0.22 0.08 99 1013.8
20260507070023 45 338 0.0 2.0 0.00 0.24 0.08 99 1013.8
20260507065021 45 68 0.0 2.0 0.00 0.24 0.08 99 1013.7
20260507064019 46 0.0 2.0 0.00 0.25 0.08 99 1013.5
20260507063037 46 0.0 2.0 0.00 0.26 0.08 99 1013.4
20260507062015 46 0.0 2.0 0.00 0.26 0.08 99 1013.3
20260507061113 46 0.0 0.0 0.00 0.27 0.08 99 1013.1
20260507060131 46 90 0.0 4.0 0.00 0.28 0.08 99 1012.9
20260507055109 46 0.0 0.0 0.00 0.28 0.08 99 1012.8
20260507054107 46 0.0 2.0 0.00 0.30 0.08 99 1012.6
20260507053105 46 0.0 0.0 0.00 0.31 0.08 99 1012.6
20260507052103 46 0.0 2.0 0.01 0.31 0.08 99 1012.4
20260507051101 46 23 0.0 2.0 0.01 0.32 0.08 99 1012.3
20260507050058 46 349 0.0 2.0 0.01 0.32 0.08 99 1012.3
20260507045056 46 0.0 0.0 0.01 0.32 0.08 99 1012.1
20260507044054 46 90 0.0 4.0 0.01 0.34 0.08 99 1012.0
20260507043053 46 331 0.0 4.0 0.01 0.34 0.08 99 1012.0
20260507042051 47 327 0.0 4.0 0.00 0.34 0.07 99 1011.9
20260507041048 47 58 0.0 4.0 0.00 0.34 0.07 99 1011.7
20260507040047 47 0.0 0.0 0.00 0.37 0.07 99 1011.7
20260507035045 47 113 0.0 2.0 0.00 0.38 0.07 99 1011.6
20260507034042 47 252 1.0 4.0 0.00 0.39 0.07 99 1011.5
20260507033040 47 0.0 2.0 0.00 0.40 0.07 99 1011.2
20260507032039 47 287 1.0 2.0 0.00 0.41 0.07 99 1011.3
20260507031036 47 270 0.0 2.0 0.00 0.44 0.07 99 1011.4
20260507030035 47 277 0.0 2.0 0.00 0.47 0.07 99 1011.3
20260507025033 47 284 1.0 4.0 0.00 0.50 0.07 99 1011.1
20260507024031 46 270 1.0 2.0 0.01 0.53 0.07 99 1011.1
20260507023049 47 265 1.0 4.0 0.01 0.56 0.07 99 1011.1
20260507022026 47 282 1.0 2.0 0.01 0.58 0.07 99 1011.0
20260507021025 47 269 1.0 7.0 0.01 0.60 0.07 99 1010.9
20260507020022 47 270 0.0 2.0 0.01 0.61 0.07 99 1010.9
20260507015020 46 278 1.0 2.0 0.01 0.64 0.07 99 1010.7
20260507014018 46 279 2.0 6.0 0.00 0.65 0.06 99 1010.8
20260507013016 46 271 2.0 6.0 0.00 0.66 0.06 99 1010.7
20260507012114 47 303 1.0 4.0 0.00 0.67 0.06 99 1010.6
20260507011113 47 303 1.0 4.0 0.00 0.70 0.06 99 1010.6
20260507010130 47 296 1.0 4.0 0.00 0.71 0.06 99 1010.5
20260507005108 47 295 1.0 6.0 0.01 0.74 0.06 99 1010.5
20260507004106 47 271 2.0 4.0 0.01 0.77 0.06 99 1010.5
20260507003104 47 305 1.0 2.0 0.02 0.78 0.06 99 1010.4
20260507002102 47 257 1.0 9.0 0.02 0.80 0.06 99 1010.3
20260507001100 47 296 1.0 4.0 0.02 0.81 0.06 99 1010.3
20260507000058 47 289 2.0 7.0 0.02 0.84 0.06 99 1010.2
20260506235056 47 286 1.0 4.0 0.01 0.84 0.05 99 1010.3
20260506234054 47 268 3.0 7.0 0.02 0.85 0.05 99 1010.2
20260506233052 47 285 2.0 4.0 0.01 0.86 0.04 99 1010.2
20260506232110 47 269 2.0 7.0 0.01 0.87 0.04 99 1010.2
20260506231048 47 270 2.0 6.0 0.02 0.89 0.04 99 1010.1
20260506230046 47 265 2.0 6.0 0.04 0.90 0.04 99 1010.1